FW1093 Weather Reports


time (UTC)temp
C
wind
direction
speed
KPH
gust
KPH
rain 1hr
cm
rain 24hr
cm
rain mn
cm
humidity
%
barometer
mb
20260831164319 24 214 0.0 1.6 0.00 0.03 0.00 69 1020.9
20260831163338 24 229 0.0 1.6 0.00 0.03 0.00 71 1021.0
20260831162324 23 240 0.0 1.6 0.00 0.03 0.00 71 1021.1
20260831161314 23 241 0.0 1.6 0.00 0.03 0.00 69 1021.1
20260831160322 22 240 0.0 3.2 0.00 0.03 0.00 72 1021.2
20260831155330 22 236 0.0 1.6 0.00 0.03 0.00 75 1021.3
20260831154346 22 233 0.0 1.6 0.00 0.03 0.00 75 1021.0
20260831153334 22 233 0.0 1.6 0.00 0.03 0.00 75 1021.2
20260831152323 22 233 0.0 3.2 0.00 0.03 0.00 73 1021.2
20260831151313 22 237 0.0 4.8 0.00 0.03 0.00 76 1021.2
20260831150322 22 244 0.0 1.6 0.00 0.03 0.00 80 1021.1
20260831145311 21 246 0.0 1.6 0.00 0.03 0.00 86 1021.2
20260831144330 21 244 0.0 1.6 0.00 0.03 0.00 85 1021.1
20260831143323 21 244 0.0 1.6 0.00 0.03 0.00 86 1021.3
20260831142354 20 244 0.0 1.6 0.00 0.03 0.00 88 1021.3
20260831141327 20 244 0.0 1.6 0.00 0.03 0.00 89 1021.1
20260831140318 20 244 0.0 1.6 0.00 0.03 0.00 89 1021.0
20260831135326 19 245 0.0 1.6 0.00 0.03 0.00 91 1021.0
20260831134313 19 246 0.0 0.0 0.00 0.03 0.00 94 1021.0
20260831133330 19 246 0.0 1.6 0.00 0.03 0.00 93 1021.1
20260831132318 18 246 0.0 1.6 0.00 0.03 0.00 94 1021.0
20260831131336 18 245 0.0 1.6 0.00 0.03 0.00 96 1021.0
20260831130330 18 245 0.0 0.0 0.00 0.03 0.00 96 1021.0
20260831125323 18 245 0.0 0.0 0.00 0.03 0.00 96 1021.1
20260831124345 17 245 0.0 1.6 0.00 0.03 0.00 97 1020.9
20260831123336 17 247 0.0 1.6 0.00 0.03 0.00 97 1020.9
20260831122329 17 245 0.0 1.6 0.00 0.03 0.00 97 1020.9
20260831121323 17 245 0.0 0.0 0.00 0.03 0.00 97 1020.9
20260831120332 17 245 0.0 1.6 0.00 0.03 0.00 97 1020.7
20260831115327 16 246 0.0 0.0 0.00 0.03 0.00 97 1020.9
20260831114346 16 246 0.0 1.6 0.00 0.03 0.00 97 1021.0
20260831113318 16 246 0.0 0.0 0.00 0.03 0.00 97 1020.8
20260831112358 16 246 0.0 0.0 0.00 0.03 0.00 97 1020.8
20260831111328 16 247 0.0 0.0 0.00 0.03 0.00 97 1020.5
20260831110350 16 246 0.0 0.0 0.00 0.03 0.00 97 1020.3
20260831105318 16 246 0.0 0.0 0.00 0.03 0.00 97 1019.9
20260831104311 16 246 0.0 0.0 0.00 0.03 0.00 97 1020.1
20260831103333 16 246 0.0 0.0 0.00 0.03 0.00 97 1020.0
20260831102326 16 246 0.0 0.0 0.00 0.03 0.00 97 1019.9
20260831101325 16 246 0.0 0.0 0.00 0.03 0.00 97 1019.8
20260831100317 16 246 0.0 0.0 0.00 0.03 0.00 97 1019.8
20260831095312 16 246 0.0 0.0 0.00 0.03 0.00 97 1019.8
20260831094330 16 247 0.0 0.0 0.00 0.03 0.00 97 1019.9
20260831093350 16 248 0.0 0.0 0.00 0.03 0.00 97 1019.8
20260831092320 16 248 0.0 0.0 0.00 0.03 0.00 97 1019.8
20260831091335 16 248 0.0 0.0 0.00 0.03 0.00 97 1019.8
20260831090324 16 248 0.0 0.0 0.00 0.03 0.00 96 1019.8
20260831085345 16 248 0.0 0.0 0.00 0.03 0.00 96 1019.6
20260831084318 16 248 0.0 0.0 0.00 0.03 0.00 96 1019.6
20260831083335 16 248 0.0 0.0 0.00 0.03 0.00 96 1019.7
20260831082354 16 248 0.0 0.0 0.00 0.03 0.00 96 1019.7
20260831081328 16 248 0.0 0.0 0.00 0.03 0.00 96 1019.5
20260831080349 16 248 0.0 0.0 0.00 0.03 0.00 96 1019.6
20260831074329 17 248 0.0 0.0 0.00 0.03 0.00 96 1019.5
20260831073320 17 248 0.0 0.0 0.00 0.03 0.00 96 1019.6
20260831072313 17 248 0.0 0.0 0.00 0.03 0.00 96 1019.6
20260831071334 17 248 0.0 0.0 0.00 0.03 0.00 96 1019.5
20260831070329 17 248 0.0 0.0 0.00 0.03 0.00 96 1019.5
20260831065325 17 248 0.0 0.0 0.00 0.03 0.00 96 1019.5
20260831064316 17 248 0.0 0.0 0.00 0.03 0.00 96 1019.5
20260831063336 17 248 0.0 0.0 0.00 0.03 0.00 96 1019.5
20260831062315 17 248 0.0 0.0 0.00 0.03 0.00 96 1019.3
20260831061331 18 248 0.0 0.0 0.00 0.03 0.00 95 1019.4
20260831060326 18 248 0.0 0.0 0.00 0.03 0.00 95 1019.4
20260831055344 18 248 0.0 0.0 0.00 0.03 0.00 95 1019.3
20260831054316 18 248 0.0 0.0 0.00 0.03 0.00 95 1019.3
20260831053315 18 248 0.0 0.0 0.00 0.03 0.00 95 1019.3
20260831052334 18 248 0.0 0.0 0.00 0.03 0.00 95 1019.1
20260831051326 19 248 0.0 0.0 0.00 0.03 0.00 95 1019.1
20260831050323 19 248 0.0 0.0 0.00 0.03 0.00 95 1019.2
20260831045347 20 248 0.0 1.6 0.00 0.03 0.00 95 1019.1
20260831044344 20 248 0.0 0.0 0.00 0.03 0.00 94 1019.0
20260831043316 20 248 0.0 0.0 0.00 0.03 0.00 94 1019.1
20260831042337 20 248 0.0 0.0 0.00 0.03 0.00 94 1019.0
20260831041335 20 248 0.0 1.6 0.00 0.03 0.00 94 1019.1
20260831040333 20 214 0.0 0.0 0.00 0.03 0.00 93 1019.2
20260831035320 20 214 0.0 1.6 0.00 0.03 0.03 93 1019.1
20260831034330 20 214 0.0 1.6 0.00 0.03 0.03 93 1019.2
20260831033321 21 108 0.0 1.6 0.00 0.03 0.03 94 1019.1
20260831032316 21 53 0.0 1.6 0.03 0.03 0.03 94 1019.2
20260831031355 21 219 0.0 1.6 0.03 0.03 0.03 94 1019.4
20260831030328 21 219 0.0 1.6 0.03 0.03 0.03 94 1019.3
20260831025317 21 219 0.0 1.6 0.03 0.03 0.03 94 1019.3
20260831024336 21 73 0.0 3.2 0.03 0.03 0.03 95 1019.5
20260831023331 21 146 0.0 1.6 0.03 0.03 0.03 95 1019.6
20260831022323 21 185 0.0 0.0 0.00 0.00 0.00 95 1019.5
20260831021312 21 185 0.0 0.0 0.00 0.00 0.00 95 1019.5
20260831020334 21 185 0.0 0.0 0.00 0.00 0.00 95 1019.3
20260831015329 21 186 0.0 0.0 0.00 0.00 0.00 95 1019.3
20260831014322 21 186 0.0 1.6 0.00 0.00 0.00 95 1019.1
20260831013316 21 219 0.0 1.6 0.00 0.00 0.00 95 1019.0
20260831012317 21 223 0.0 0.0 0.00 0.00 0.00 94 1019.1
20260831011335 21 223 0.0 0.0 0.00 0.00 0.00 94 1019.0
20260831010329 21 223 0.0 0.0 0.00 0.00 0.00 94 1018.9
20260831005326 21 223 0.0 0.0 0.00 0.00 0.00 93 1019.0
20260831004345 21 223 0.0 0.0 0.00 0.00 0.00 93 1018.9
20260831003318 21 223 0.0 0.0 0.00 0.00 0.00 92 1018.8
20260831002314 21 223 0.0 0.0 0.00 0.00 0.00 92 1018.7
20260831001332 21 223 0.0 0.0 0.00 0.00 0.00 92 1018.7
20260831000327 21 223 0.0 0.0 0.00 0.00 0.00 91 1018.7
20260830235316 21 223 0.0 0.0 0.00 0.00 0.00 90 1018.5
20260830234358 21 223 0.0 0.0 0.00 0.00 0.00 89 1018.5
20260830233329 21 223 0.0 0.0 0.00 0.00 0.00 89 1018.5
20260830232321 21 223 0.0 0.0 0.00 0.00 0.00 88 1018.5
20260830231317 22 223 0.0 0.0 0.00 0.00 0.00 88 1018.4
20260830230337 22 223 0.0 0.0 0.00 0.00 0.00 88 1018.4
20260830225328 22 223 0.0 1.6 0.00 0.00 0.00 88 1018.6
20260830224324 22 223 0.0 0.0 0.00 0.00 0.00 87 1018.7
20260830223317 22 223 0.0 0.0 0.00 0.00 0.00 86 1018.4
20260830222337 22 223 0.0 0.0 0.00 0.00 0.00 85 1018.6
20260830221329 22 223 0.0 0.0 0.00 0.00 0.00 84 1018.6
20260830220325 23 223 0.0 0.0 0.00 0.00 0.00 83 1018.6
20260830215320 23 223 0.0 0.0 0.00 0.00 0.00 82 1018.5
20260830214346 23 223 0.0 1.6 0.00 0.00 0.00 81 1018.5
20260830213316 23 223 0.0 1.6 0.00 0.00 0.00 82 1018.5
20260830212337 23 223 0.0 1.6 0.00 0.00 0.00 80 1018.5
20260830211330 23 223 0.0 1.6 0.00 0.00 0.00 80 1018.6
20260830210350 23 224 0.0 1.6 0.00 0.00 0.00 79 1018.7
20260830205324 23 221 0.0 1.6 0.00 0.00 0.00 79 1018.7
20260830204315 23 300 0.0 1.6 0.00 0.00 0.00 79 1018.9
20260830203333 23 300 0.0 1.6 0.00 0.00 0.00 78 1018.9
20260830202328 23 20 0.0 1.6 0.00 0.00 0.00 77 1018.9
20260830201322 23 319 0.0 1.6 0.00 0.00 0.00 77 1019.0
20260830200318 23 333 0.0 1.6 0.00 0.00 0.00 77 1018.9
20260830195312 23 333 0.0 0.0 0.00 0.00 0.00 76 1019.0
20260830194323 23 333 0.0 0.0 0.00 0.00 0.00 76 1019.1
20260830193318 23 331 0.0 1.6 0.00 0.00 0.00 74 1019.3
20260830192336 23 336 0.0 0.0 0.00 0.00 0.00 73 1019.3
20260830191330 24 328 0.0 1.6 0.00 0.00 0.00 71 1019.5
20260830190325 24 290 0.0 1.6 0.00 0.00 0.00 69 1019.7
20260830185320 25 224 0.0 1.6 0.00 0.00 0.00 66 1019.9
20260830184342 26 293 0.0 1.6 0.00 0.00 0.00 65 1020.0
20260830183318 26 140 0.0 4.8 0.00 0.00 0.00 63 1020.2
20260830182327 26 313 1.6 4.8 0.00 0.00 0.00 62 1020.1
20260830181321 25 147 0.0 3.2 0.00 0.00 0.00 65 1020.2
20260830180315 26 332 0.0 3.2 0.00 0.00 0.00 65 1020.3
20260830175333 25 139 0.0 3.2 0.00 0.00 0.00 66 1020.2
20260830174332 26 31 0.0 3.2 0.00 0.00 0.00 67 1020.1
20260830173324 26 144 0.0 3.2 0.00 0.00 0.00 66 1020.4
20260830172319 25 147 0.0 4.8 0.00 0.00 0.00 67 1020.5
20260830170321 25 131 1.6 3.2 0.00 0.00 0.00 63 1020.6
20260830165315 25 125 0.0 1.6 0.00 0.00 0.00 64 1020.7